TOLEDO1 KCVG-KFFO

Flight info

Callsign TOLEDO1
Flight time 0h 17m
Altitude VFR/080
Route
Aircraft F16/M-VGDW/C

Departure

Time 2026-05-04 20:13
Airport Cincinnati Northern Kentucky International Airport (KCVG)

Arrival

Time 2026-05-04 20:31
Airport Wright-Patterson Air Force Base (KFFO)
Time Latitude Longitude Altitude Speed Heading
2026-05-04 20:04 39.04364 -84.65641 872 ft 0 kts 270°
2026-05-04 20:09 39.04367 -84.65648 872 ft 5 kts 322°
2026-05-04 20:09 39.04419 -84.65587 869 ft 12 kts 353°
2026-05-04 20:09 39.04464 -84.65523 868 ft 14 kts 101°
2026-05-04 20:10 39.04462 -84.65386 869 ft 17 kts 91°
2026-05-04 20:10 39.04462 -84.65279 870 ft 18 kts 91°
2026-05-04 20:10 39.04462 -84.65059 873 ft 20 kts 89°
2026-05-04 20:10 39.04468 -84.64904 874 ft 17 kts 60°
2026-05-04 20:11 39.04579 -84.64884 876 ft 18 kts 360°
2026-05-04 20:11 39.04713 -84.64887 876 ft 22 kts 358°
2026-05-04 20:11 39.04872 -84.64883 876 ft 23 kts
2026-05-04 20:11 39.05036 -84.64881 873 ft 24 kts
2026-05-04 20:12 39.05213 -84.64882 868 ft 26 kts
2026-05-04 20:12 39.05389 -84.64880 866 ft 23 kts
2026-05-04 20:12 39.05437 -84.64795 864 ft 0 kts 90°
2026-05-04 20:12 39.05437 -84.64737 864 ft 21 kts 90°
2026-05-04 20:13 39.05394 -84.64669 865 ft 7 kts 180°
2026-05-04 20:13 39.05245 -84.64670 867 ft 96 kts 180°
2026-05-04 20:13 39.03846 -84.64671 1035 ft 306 kts 181°
2026-05-04 20:13 39.01218 -84.64601 2641 ft 393 kts 168°
2026-05-04 20:14 39.00029 -84.62330 2613 ft 303 kts 68°
2026-05-04 20:14 39.01435 -84.60902 2181 ft 245 kts 24°
2026-05-04 20:14 39.02974 -84.59988 2185 ft 253 kts 21°
2026-05-04 20:14 39.04642 -84.59085 2494 ft 268 kts 20°
2026-05-04 20:15 39.06430 -84.58180 2918 ft 284 kts 20°
2026-05-04 20:15 39.08558 -84.57139 3501 ft 410 kts 18°
2026-05-04 20:15 39.11743 -84.55637 4352 ft 513 kts 19°
2026-05-04 20:15 39.15031 -84.53894 4683 ft 514 kts 20°
2026-05-04 20:16 39.18389 -84.52138 5358 ft 527 kts 19°
2026-05-04 20:16 39.21626 -84.49942 5975 ft 534 kts 47°
2026-05-04 20:16 39.22919 -84.47251 6124 ft 542 kts 60°
2026-05-04 20:16 39.25104 -84.41570 3613 ft 535 kts 72°
2026-05-04 20:17 39.25794 -84.38670 3078 ft 480 kts 75°
2026-05-04 20:17 39.24986 -84.35816 2988 ft 306 kts 175°
2026-05-04 20:17 39.23564 -84.36724 2879 ft 200 kts 226°
2026-05-04 20:17 39.22865 -84.38062 2721 ft 191 kts 248°
2026-05-04 20:18 39.22445 -84.39730 2628 ft 194 kts 250°
2026-05-04 20:18 39.22074 -84.41398 2373 ft 188 kts 251°
2026-05-04 20:18 39.21314 -84.42376 2079 ft 217 kts 174°
2026-05-04 20:18 39.19145 -84.41989 2477 ft 370 kts 175°
2026-05-04 20:19 39.17924 -84.40168 2275 ft 241 kts 153°
2026-05-04 20:19 39.16546 -84.39438 2028 ft 195 kts 169°
2026-05-04 20:19 39.15189 -84.39250 1742 ft 199 kts 187°
2026-05-04 20:19 39.13919 -84.39658 1465 ft 174 kts 202°
2026-05-04 20:20 39.12872 -84.40160 1054 ft 159 kts 203°
2026-05-04 20:20 39.11765 -84.40717 788 ft 177 kts 206°
2026-05-04 20:20 39.10669 -84.41254 482 ft 152 kts 206°
2026-05-04 20:20 39.09752 -84.41716 546 ft 176 kts 206°
2026-05-04 20:21 39.08371 -84.42488 2059 ft 228 kts 186°
2026-05-04 20:21 39.08065 -84.41049 2428 ft 264 kts 26°
2026-05-04 20:21 39.12595 -84.39726 2682 ft 478 kts 13°
2026-05-04 20:22 39.16608 -84.38382 3208 ft 670 kts 13°
2026-05-04 20:22 39.20941 -84.36942 3754 ft 614 kts 13°
2026-05-04 20:22 39.23654 -84.36031 4107 ft 581 kts 12°
2026-05-04 20:22 39.28614 -84.34275 4835 ft 537 kts 12°
2026-05-04 20:23 39.32034 -84.33067 5040 ft 464 kts 11°
2026-05-04 20:23 39.34850 -84.32044 5107 ft 379 kts 11°
2026-05-04 20:23 39.36857 -84.31021 1694 ft 330 kts
2026-05-04 20:23 39.38844 -84.30424 1660 ft 257 kts 13°
2026-05-04 20:24 39.40394 -84.29879 1555 ft 215 kts 13°
2026-05-04 20:24 39.41776 -84.29452 1364 ft 194 kts 11°
2026-05-04 20:24 39.43175 -84.29055 1472 ft 253 kts 10°
2026-05-04 20:24 39.45038 -84.28585 1815 ft 282 kts
2026-05-04 20:25 39.47136 -84.28031 2147 ft 340 kts
2026-05-04 20:25 39.49668 -84.27430 2796 ft 398 kts
2026-05-04 20:25 39.52441 -84.26767 2828 ft 380 kts 22°
2026-05-04 20:25 39.53833 -84.24858 2415 ft 257 kts 20°
2026-05-04 20:26 39.55479 -84.24516 2216 ft 249 kts 354°
2026-05-04 20:26 39.57366 -84.24614 2655 ft 294 kts 354°
2026-05-04 20:26 39.59538 -84.24753 3270 ft 330 kts 353°
2026-05-04 20:26 39.61633 -84.24852 4777 ft 284 kts 345°
2026-05-04 20:27 39.63591 -84.25077 2149 ft 361 kts 352°
2026-05-04 20:27 39.65855 -84.24997 2414 ft 287 kts
2026-05-04 20:27 39.67566 -84.24692 2651 ft 212 kts
2026-05-04 20:27 39.68869 -84.24366 2605 ft 192 kts 22°
2026-05-04 20:28 39.69967 -84.22599 2290 ft 284 kts 51°
2026-05-04 20:28 39.71226 -84.20742 2419 ft 262 kts 47°
2026-05-04 20:28 39.72427 -84.19069 2480 ft 245 kts 47°
2026-05-04 20:28 39.73572 -84.17464 2493 ft 250 kts 48°
2026-05-04 20:29 39.74804 -84.15712 2622 ft 273 kts 48°
2026-05-04 20:29 39.76119 -84.13887 2784 ft 260 kts 44°
2026-05-04 20:29 39.77341 -84.12405 2448 ft 250 kts 47°
2026-05-04 20:29 39.78591 -84.10794 2016 ft 250 kts 47°
2026-05-04 20:30 39.79638 -84.09272 1584 ft 210 kts 49°
2026-05-04 20:30 39.80563 -84.07918 1124 ft 194 kts 51°
2026-05-04 20:30 39.81426 -84.06612 877 ft 186 kts 50°
2026-05-04 20:30 39.82190 -84.05463 810 ft 146 kts 50°
2026-05-04 20:31 39.82629 -84.04822 818 ft 58 kts 47°
2026-05-04 20:31 39.82748 -84.04553 818 ft 22 kts 148°
2026-05-04 20:31 39.82676 -84.04475 819 ft 20 kts 140°